WELCOME TO AIR WEST FLIGHT SUPPORT

Slider

THE RIGHT CHOICE FOR THE BEST SERVICE

OUR GOAL IS TO BE THE MOST ACCOMMODATING FBO IN LETHBRIDGE, AB. WITH EFFICIENT AND PROFFESSIONAL SERVICE

 WE HAVE GOT IT ALL!

  • Great Attitude
  • The Right Equipment
  • Large Facilities
  • Competitive Fuel Prices
  • In-House Aircraft Maintenance
  • In-House Flight Training, Aircraft Rentals
  • Aircraft Sales And Much  More!

Facebook By Weblizar Powered By Weblizar

 


We are located at the Lethbridge County Airport (CYQL) on Ramp 2 at the east end of Taxiway C.   Lethbridge is a key point of entry where you can clear customs using
CANPASS.  The Airport is approximately 5 km south of the City of Lethbridge, which offers convenient access to nearby towns such as Cardston, Crowsnest Pass, Coaldale, Fort MacLeod, Milk River, Pincher Creek and Taber.  Lethbridge and its surrounding area is a great tourist destination

 


Click on image to enlarge

Available data for CYQL from the past 2 hours
LETHBRIDGE VOR, AB
Metar
CYQL 231700Z 26015KT 60SM FEW060 SCT260 00/M08 A3007 RMK SC1CI3 SC TR SLP220

17:00 UTC

Wind: 260° 15kt

Visibility: 60 SM

Sky: FEW 6000 ft

Temp: 0 deg C / 32 deg F

Dewpoint: -8 deg C / 17.6 deg F

Pressure: 30.07 inHg

TAF
TAF CYQL 231142Z 2312/2324 25015G25KT P6SM SCT250 BECMG 2321/2323 23010G20KT BKN250 RMK FCST BASED ON AUTO OBS. NXT FCST BY 231800Z